Location: Bennemühlen
(52.5740°N, 9.7135°E)
Time: 02:36:43
(UTC+00:00)

Vanguard 2 Rocket - Pass Details

Date: 18 February 2026
Orbit: 553 x 3286 km, 32.9° (Epoch: 12 March)

Event Time Altitude Azimuth Distance (km) Brightness Sun altitude
Rises 15:53:01 0° 261° (W) 6,502 12.9 5.7°
Reaches altitude 10° 15:59:10 10° 249° (WSW) 4,998 13.4 4.8°
Maximum altitude 16:07:58 21° 208° (SSW) 3,321 10.7 3.6°
Drops below altitude 10° 16:14:16 10° 164° (SSE) 3,419 10.0 2.7°
Sets 16:17:29 0° 147° (SSE) 4,012 10.1 2.3°
